Lid_Strength_Index
16 15 15 15 15 15 17 16 17 16 15 16 16 15 15 15 18 18 15 16 15 14 12 12 12 11 10 10 10 9 10 10 10 10 9 9 10 10 10 10 9 10 10 10
17 15 16 17 17 16 16 16 15 14 14 14 14 14 14 16 17 17 14 15 16 14 11 11 11 11 11 10 10 10 10 10 10 9 10 10 10 10 10 10 10 9 10 9
19 17 17 20 18 17 21 16 15 16 17 15 15 13 13 12 12 14 12 11 11 11 13 12 11 11 11 10 10 10 10 10 10 9 9 9 9 10 9 9 9 9 9 9
19 17 22 21 20 20 18 19 16 15 15 14 16 14 12 11 11 11 12 14 15 14 14 11 11 10 10 11 11 10 10 9 10 10 10 10 10 10 10 9 8 9 9 9
18 18 18 18 17 18 19 17 14 16 16 15 13 12 11 10 13 15 15 15 13 13 14 13 12 10 11 11 10 10 10 10 10 9 9 10 10 9 8 8 8 8 8 8
16 19 20 19 15 14 15 18 12 15 17 18 17 17 15 10 9 9 8 8 11 14 14 15 12 11 11 10 10 10 10 9 9 9 9 10 9 8 9 9 8 8 8 8
16 17 17 14 13 11 18 18 12 14 16 18 18 16 15 11 11 10 8 8 15 16 16 14 12 13 11 11 12 10 9 9 9 9 9 9 9 9 9 10 9 10 10 10
19 20 19 12 12 14 12 10 11 13 16 17 17 14 14 13 14 14 15 15 15 17 17 16 17 17 14 14 11 10 10 10 10 10 10 9 10 10 10 10 11 11 11 11
15 15 10 10 10 9 9 11 12 14 14 14 13 13 11 11 8 16 17 18 20 19 18 19 19 19 16 13 11 11 11 12 11 10 10 10 10 11 11 11 12 12 11 12
12 11 10 9 8 8 8 9 10 8 9 11 14 12 12 13 15 18 19 18 21 21 17 17 18 18 17 14 12 12 12 12 12 12 11 11 10 10 11 12 12 11 12 12
11 10 10 9 9 8 9 9 9 9 10 12 14 12 14 15 15 18 18 20 22 21 19 18 18 19 18 16 14 14 13 12 12 12 12 12 11 11 11 10 10 10 10 9
13 9 9 10 8 8 10 10 10 12 13 12 14 15 14 16 15 18 18 22 22 22 24 20 20 19 19 18 15 15 14 12 13 12 12 12 12 11 8 8 8 8 7 8
9 7 8 8 8 8 10 10 11 13 14 16 16 17 16 18 18 13 18 20 22 20 20 20 20 20 19 19 18 16 14 13 13 11 11 12 12 12 12 10 8 8 7 7
9 10 11 9 11 9 10 11 11 14 16 17 18 17 18 19 18 19 19 19 20 20 20 20 21 20 18 20 19 17 14 11 12 13 12 12 11 11 12 13 12 12 9 8
9 10 11 12 11 12 13 14 15 17 18 19 18 19 22 21 21 20 19 18 18 19 20 21 21 19 18 20 20 17 14 13 13 11 10 10 11 12 12 12 12 12 11 10
14 14 15 15 16 17 18 18 18 19 20 21 22 21 21 22 21 20 20 19 20 18 18 20 20 18 18 19 17 15 14 10 9 10 11 12 12 13 13 12 12 12 12 12
14 13 15 16 17 20 20 20 19 18 19 20 20 21 22 21 20 20 19 19 19 18 18 19 18 17 17 16 17 13 12 11 9 11 12 12 12 13 13 12 13 13 13 11
13 16 18 18 20 20 19 18 18 18 20 21 22 23 22 21 21 20 19 18 18 17 16 16 17 14 12 16 16 13 11 11 11 13 12 12 13 13 14 13 14 14 13 12
15 15 17 19 19 19 21 21 22 23 23 23 22 21 21 21 20 19 19 17 17 16 16 14 12 11 13 14 10 11 11 11 12 13 13 12 13 14 15 14 14 14 14 13
13 14 14 16 16 18 20 22 22 20 21 20 20 19 19 18 18 17 17 18 17 17 14 13 12 13 13 12 10 10 10 12 13 14 14 13 14 16 16 14 14 15 15 14
14 14 14 14 16 16 16 18 18 18 19 17 17 18 17 16 16 16 16 17 15 14 12 11 12 12 12 11 10 10 10 12 15 14 14 15 15 16 17 16 16 16 15 15
16 15 15 16 17 17 17 18 17 17 17 17 16 15 16 16 15 15 15 16 14 11 12 12 12 11 9 8 9 10 13 14 14 14 15 15 15 16 17 17 16 15 16 15
15 15 16 17 18 18 18 18 18 17 17 16 15 16 16 16 16 17 18 14 13 12 12 12 11 9 8 10 11 13 14 13 14 14 14 14 15 15 16 16 16 15 15 16
16 16 17 16 17 17 18 18 18 17 17 16 15 15 16 17 17 15 14 13 12 12 12 13 12 10 9 12 14 14 13 13 13 14 14 12 14 15 16 18 17 16 16 16
17 17 17 17 17 17 18 18 18 17 17 17 16 16 16 15 16 15 15 15 13 13 15 13 11 11 14 14 13 13 13 13 13 13 14 15 15 15 16 18 17 16 14 15
16 16 16 17 17 18 18 17 17 18 18 19 18 17 16 15 15 16 16 15 16 15 17 16 16 14 14 15 14 13 13 12 13 14 13 14 14 15 16 18 17 16 16 16
17 15 16 17 17 17 17 16 19 19 18 19 19 16 17 16 16 16 15 17 17 16 16 16 15 15 15 14 14 13 13 13 12 13 14 14 14 14 16 16 16 16 16 16